Vertical_Velocity
1 4 8 2 -3 2 -2 -1 -2 -1 -2 0 1 -0 -4 -7 -3 -4 -4 -5 -3 -4
5 9 3 -6 -0 4 1 -1 -3 -2 -4 -5 -5 -2 -4 -6 -2 -6 -4 -6 -11 -15
8 5 5 5 3 2 -2 -1 -0 -1 -2 -3 -3 -3 -3 -0 -1 -5 -3 0 -0 -0
4 4 5 3 -0 -0 0 -1 -2 -3 -1 -1 -2 -2 -3 -7 -6 0 1 -2 -7 -5
3 1 -2 2 2 3 1 -3 -1 -2 -4 -4 1 -0 -3 -2 1 0 0 -1 0 -6
3 0 5 3 3 1 -1 -3 -1 -3 -2 -2 -1 -2 -0 -0 4 2 -1 -2 -2 -5
6 5 5 2 0 -1 -1 -2 -1 -0 -1 -0 0 -0 1 1 3 2 4 4 3 1
4 -0 3 -1 -2 -1 -1 -0 -0 -4 -0 -0 -1 0 -1 3 4 2 -0 2 1 1
3 4 -1 -1 0 -1 -0 -1 -3 -0 -2 -1 -1 1 2 3 -3 -1 -0 0 3 3
2 -2 1 4 2 1 -1 -3 -2 -1 2 -1 1 1 1 -1 -1 -2 1 1 -1 -0
-3 1 0 -1 0 -1 -1 -1 -1 -0 1 -4 1 1 -0 1 -0 0 0 -1 0 -1
1 0 1 -1 -0 -1 -2 -1 -0 0 -1 -1 -1 2 -1 1 0 0 0 0 1 -1
1 0 -1 -1 -1 1 -0 -4 -1 1 2 1 -2 1 1 -0 -0 -2 -2 1 -0 1
-0 -2 -2 -3 -1 -0 -1 -2 2 -1 3 2 2 0 0 0 1 1 -0 2 1 -0
Height
3032 3029 3025 3020 3016 3014 3010 3008 3006 3003 3000 2997 2993 2989 2986 2983 2980 2977 2976 2975 2974 2974
3020 3017 3013 3007 3005 3003 2999 2997 2994 2991 2988 2984 2980 2976 2972 2969 2966 2964 2962 2961 2960 2962
3008 3005 3001 2997 2993 2991 2988 2986 2984 2980 2977 2973 2969 2966 2962 2958 2955 2953 2951 2949 2948 2948
2996 2993 2989 2985 2982 2980 2978 2976 2972 2969 2965 2960 2956 2952 2949 2945 2942 2938 2936 2934 2933 2932
2985 2982 2978 2977 2974 2971 2968 2965 2961 2956 2951 2947 2943 2939 2935 2931 2929 2926 2923 2921 2919 2917
2976 2972 2971 2969 2965 2961 2958 2953 2949 2944 2938 2934 2929 2926 2922 2919 2915 2911 2908 2906 2903 2902
2968 2967 2963 2959 2955 2952 2948 2943 2939 2933 2927 2922 2917 2913 2909 2905 2900 2896 2892 2889 2887 2886
2961 2957 2953 2949 2946 2943 2939 2934 2928 2921 2916 2911 2906 2901 2896 2892 2887 2882 2877 2873 2870 2869
2951 2949 2945 2941 2938 2934 2929 2923 2917 2910 2904 2899 2894 2889 2884 2878 2872 2866 2860 2856 2855 2853
2945 2942 2939 2935 2930 2924 2918 2912 2906 2900 2893 2887 2881 2876 2870 2864 2855 2850 2846 2843 2840 2840
2939 2935 2932 2927 2921 2915 2908 2901 2895 2889 2882 2874 2868 2863 2856 2849 2842 2837 2834 2832 2830 2827
2933 2929 2924 2919 2912 2905 2897 2891 2885 2878 2870 2862 2857 2850 2844 2837 2832 2826 2823 2821 2818 2816
2926 2921 2915 2909 2903 2896 2888 2881 2875 2867 2861 2852 2845 2840 2834 2829 2822 2816 2812 2808 2805 2804
2919 2913 2907 2900 2894 2887 2880 2872 2866 2859 2852 2843 2836 2831 2826 2821 2815 2809 2802 2797 2794 2792